Location: Ambohibao Atsimo
(18.7473°S, 47.7503°E)
Time: 18:33:05
(UTC+00:00)

Daily predictions for brighter satellites

Satellite Brightness Start Highest point End
(mag) Time Altitude Azimuth Time Altitude Azimuth Time Altitude Azimuth
Cosmos 1741 Rocket 4.1 15:29:17 10° NNW 15:34:33 85° WSW 15:39:49 10° SSE
Cosmos 1818 3.6 15:29:45 10° NNW 15:35:05 64° ENE 15:40:26 10° SSE
SME Rocket 3.2 15:35:51 10° NNE 15:39:29 42° ESE 15:43:10 10° S
Feng Yun 1-1 Rocket 4.3 15:34:14 10° SSE 15:39:49 62° ENE 15:45:30 10° N
GPS 2-18 Rocket1 3.7 15:36:45 10° NW 15:40:23 40° NNE 15:43:56 10° E
Cosmos 1271 Rocket 3.0 15:37:19 10° NNE 15:40:59 45° E 15:44:46 10° SSE
COSMOS 2428 3.2 15:36:01 10° SSW 15:41:42 67° WNW 15:47:18 10° N
Delta 198 4.4 15:39:06 10° WSW 15:42:39 35° S 15:46:37 10° ESE
Lacrosse 4 Rocket 4.2 15:43:14 10° WSW 15:46:19 20° WNW 15:49:26 10° NNW
X-37B 1.9 15:43:49 10° WSW 15:46:52 40° NW 15:49:53 10° NNE
Meteor 1-11 Rocket 4.0 15:41:53 10° S 15:47:44 55° E 15:53:26 10° NNE
Cosmos 1980 4.1 15:42:42 10° S 15:48:06 43° ESE 15:53:26 10° NE
YAOGAN 1 3.1 15:44:47 10° SSE 15:48:47 35° E 15:52:44 10° NNE
GPS 2-17 Rocket1 3.0 15:44:45 10° W 15:49:18 90° NE 15:53:36 12° E
Cosmos 2219 Rocket 3.5 15:44:03 10° SW 15:49:20 43° WNW 15:54:34 10° N
GOES 2 Rocket 3.8 15:45:31 10° W 15:49:35 42° NNW 15:53:36 10° NE
Helios 1A Rocket 4.4 15:47:16 10° SE 15:50:02 17° E 15:52:45 10° NE
COSMOS 2455 3.4 15:44:57 10° N 15:50:21 36° ENE 15:55:46 10° SE
Palapa B4 Rocket 2.7 15:47:20 10° W 15:51:40 89° S 15:54:49 14° E
USA 238 DEB 4.3 15:45:37 10° SW 15:52:03 57° WNW 15:58:19 10° N
USA 238 4.2 15:45:41 10° SW 15:52:08 58° WNW 15:58:26 10° N
FALCON 9 R/B 2.7 15:48:31 10° WSW 15:52:21 68° NNW 16:04:13 10° NE
GP-B 3.2 15:51:23 10° SSE 15:55:45 51° E 16:00:04 10° NNE
ARGOS 3.8 15:51:57 10° SE 15:56:47 33° E 16:01:34 10° NNE
CZ-3C R/B 4.3 15:55:25 10° W 16:01:03 15° NW 16:03:52 10° NNW
Cosmos 1238 Rocket 4.0 15:59:07 10° S 16:05:25 53° E 16:10:58 10° NNE
H-2A R/B 2.0 16:03:45 10° SSE 16:09:00 75° ENE 16:14:21 10° N
Cosmos 1862 Rocket 3.5 16:05:02 10° N 16:09:25 65° E 16:13:49 10° SSE
OAO 2 Rocket 3.5 16:04:39 10° WNW 16:09:56 84° SSW 16:14:52 12° ESE
ATLAS 3B R/B 3.8 16:04:52 10° S 16:10:02 22° ESE 16:12:23 19° E
Nadezhda 3 Rocket 4.0 16:04:19 10° N 16:10:33 61° E 16:16:46 10° SSE
SL-8 Rocket 4.2 16:04:26 10° S 16:10:47 76° W 16:17:03 10° N
IRS-1C Rocket 4.1 16:07:17 10° SSE 16:12:35 86° WSW 16:17:51 10° NNW
Cosmos 1536 2.7 16:09:58 10° S 16:14:05 78° E 16:18:06 10° N
CZ-4 R/B 1.4 16:10:47 10° S 16:14:42 75° WSW 16:18:32 10° NNW
ARIANE 5 R/B 4.1 16:12:45 10° NW 16:17:23 35° NNE 16:26:40 20° ENE
IRS-P2 Rocket 4.5 16:13:44 10° SSE 16:19:02 70° ENE 16:24:12 10° N
Cosmos 2227 4.3 16:15:52 10° N 16:21:22 52° ENE 16:26:51 10° SSE
Cosmos 1743 3.1 16:20:08 10° SSE 16:23:46 39° E 16:24:02 39° E
TSX-5 3.3 16:21:39 10° NNW 16:24:52 81° ENE 16:28:40 10° SSE
Cosmos 2366 rocket 4.3 16:19:30 10° S 16:25:43 71° W 16:31:55 10° N
SL-08 R/B 4.5 16:20:06 10° S 16:26:20 62° E 16:32:35 10° NNE
ASTEX 1 3.4 16:21:48 10° NNE 16:26:37 61° E 16:31:30 10° S
Cosmos 1544 3.1 16:24:25 10° S 16:27:57 51° E 16:28:09 50° E
CSL-04 Rocket 3.8 16:23:39 10° SSE 16:29:05 54° ENE 16:34:29 10° N
CSL-04 Debris 4.1 16:25:06 10° SSE 16:30:28 61° ENE 16:35:47 10° N
CZ-4B R/B 4.4 16:27:19 10° SSE 16:31:44 74° ENE 16:36:02 10° N
Cosmos 2263 Rocket 2.0 16:26:50 10° N 16:32:23 74° ENE 16:38:02 10° SSE
Okean-O 3.1 16:28:07 10° S 16:32:33 63° WSW 16:36:55 10° NNW
Meteor 1-18 Rocket 4.2 16:26:47 10° N 16:32:36 84° E 16:38:22 10° S
Cosmos 968 Rocket 3.6 16:29:52 10° N 16:34:54 50° ENE 16:39:57 10° SSE
USA 81 4.4 16:30:20 10° SSE 16:35:18 39° E 16:35:36 39° E
Cosmos 1486 Rocket 4.2 16:33:19 10° N 16:38:24 47° E 16:43:30 10° SSE
ATLAS 3B CENTAUR R/B 3.1 16:32:02 10° NW 16:45:22 63° NNE 16:48:00 41° E
Milstar 3 4.2 16:37:52 10° NNW 16:45:37 24° NNE 16:46:21 23° NNE
Cosmos 1733 Rocket 2.8 16:42:54 10° S 16:47:16 82° E 16:47:48 68° NNE
CZ-2C R/B 2.4 16:44:49 10° W 16:47:38 28° SSW 16:48:01 27° SSW
Cosmos 2237 Rocket 3.1 16:43:05 10° SSW 16:48:30 47° WNW 16:53:54 10° N
Cosmos 1821 Rocket 3.9 16:45:25 10° S 16:51:51 74° E 16:55:16 29° NNE
Ariane H10-3 4.5 16:56:16 10° NNW 16:56:46 13° NNW 16:56:46 13° NNW
SL-08 RB Rocket 4.2 16:56:08 10° S 17:00:34 57° WSW 17:04:57 10° NNW
Cosmos 1339 Rocket 4.4 16:59:33 44° NNE 17:01:32 67° E 17:07:56 10° SSE
Cosmos 1763 Rocket 4.2 16:58:48 10° SSW 17:03:52 52° WNW 17:06:23 28° NNW
Cosmos 2239 Rocket 4.4 16:58:06 10° S 17:04:28 77° E 17:05:49 57° NNE
BREEZE-M DEB (TANK) 3.5 16:59:52 10° SW 17:03:21 37° SSW 17:03:21 37° SSW
Lacrosse 5 rocket 2.7 17:04:05 10° WNW 17:07:34 33° SW 17:07:45 33° SW
NATO 3D Rocket 4.1 16:58:14 10° WNW 17:07:36 78° NNE 17:08:47 64° ENE
SL-16 R/B 2.2 17:01:55 10° SSW 17:07:07 67° SE 17:07:07 67° SE
Lacrosse 5 3.4 17:03:35 10° WSW 17:08:08 32° WNW 17:09:55 25° NNW
CZ-2C R/B 4.1 17:10:29 63° W 17:10:29 63° W 17:14:57 10° SSW
ASTRO E2 4.4 17:08:14 10° WSW 17:10:38 30° WNW 17:10:38 30° WNW
Atlas Centaur 2 3.2 17:15:04 10° NW 17:18:17 31° NW 17:18:17 31° NW
ATLAS 3B R/B 3.6 17:54:24 10° SW 17:59:40 40° W 17:59:40 40° W
